Flag for Austria Weather past 2 weeks in Lustenau, Vorarlberg, Austria

Now
52 °F

Light rain. Partly cloudy.


Feels Like: 48 °F
Forecast: 43 / 50 °F
Wind: 12 mph from West

Location: Saint Gallen-Altenrhein

Current Time: Dec 20, 2014 at 12:53:04 AM

Latest Report: Dec 20, 2014 at 12:20 AM


Visibility: N/A

Pressure: 30.21 "Hg

Humidity: 77%

Dew point: 45 °F

Location of LustenauLocation

Historic Weather in Lustenau — Graph

°F

Lustenau temperature yesterday

Maximum temperature yesterday: 54 °F (at 11:20 AM)
Minimum temperature yesterday: 39 °F (at 8:20 AM)
Average temperature yesterday: 48 °F

Past Weeks' High & Low Weather Summary

 TemperatureHumidityPressure
High54 °F (Dec 19, 11:20 AM)100% (Dec 5, 8:20 AM)30.42 "Hg (Dec 5, 8:20 AM)
Low27 °F (Dec 10, 4:20 AM)32% (Dec 12, 8:50 PM)29.80 "Hg (Dec 12, 9:20 PM)
Average42 °F86%30.08 "Hg
* Reported Dec 4 11:20 PM — Dec 19 11:50 PM, Lustenau, Weather by CustomWeather, © 2014

Note: Actual official high and low records may vary slightly from our data, if they occured in-between our weather recording intervals... More about our weather records

Advertising

Lustenau weather history for previous 24 hours

 ConditionsComfort  
Time TempWeatherWind HumidityBarometerVisibility
11:50 PM
Dec 19
50 °FRain. Partly cloudy.13 mph82%30.21 "HgN/A
11:20 PM50 °FSprinkles. Passing clouds.12 mph82%30.18 "HgN/A
10:50 PM50 °FSprinkles. Passing clouds.12 mph82%30.18 "HgN/A
10:20 PM50 °FLight rain. Overcast.16 mph76%30.18 "HgN/A
9:50 PM50 °FLight rain. Passing clouds.13 mph76%30.18 "HgN/A
9:20 PM48 °FSprinkles. Passing clouds.6 mph87%30.18 "HgN/A
8:50 PM46 °FClear.3 mph93%30.18 "Hg10 mi
8:20 PM45 °FClear.2 mph93%30.15 "Hg10 mi
7:50 PM45 °FClear.1 mph93%30.15 "Hg10 mi
7:20 PM45 °FClear.1 mph93%30.15 "Hg10 mi
6:50 PM43 °FClear.3 mph93%30.12 "Hg10 mi
6:20 PM45 °FClear.3 mph93%30.12 "Hg10 mi
5:50 PM45 °FClear.1 mph93%30.12 "Hg10 mi
5:20 PM46 °FClear.2 mph87%30.12 "Hg10 mi
4:50 PM48 °FClear.2 mph87%30.12 "Hg10 mi
4:20 PM48 °FSunny.2 mph87%30.12 "Hg10 mi
3:50 PM50 °FSunny.1 mph82%30.12 "Hg10 mi
3:20 PM50 °FSunny.2 mph88%30.12 "Hg10 mi
2:50 PM52 °FSunny.3 mph77%30.12 "Hg10 mi
2:20 PM54 °FPassing clouds.5 mph72%30.12 "HgN/A
1:50 PM54 °FSunny.2 mph77%30.15 "Hg10 mi
1:20 PM54 °FSunny.2 mph72%30.15 "Hg10 mi
12:50 PM54 °FSunny.2 mph77%30.15 "Hg10 mi
12:20 PM54 °FSunny.2 mph82%30.18 "Hg10 mi
11:50 AM54 °FSunny.3 mph77%30.18 "Hg10 mi
11:20 AM54 °FSunny.2 mph72%30.18 "Hg10 mi
10:50 AM52 °FPassing clouds.3 mph77%30.18 "HgN/A
10:20 AM52 °FSunny.2 mph77%30.18 "Hg10 mi
9:50 AM50 °FSunny.3 mph82%30.18 "Hg10 mi
9:20 AM46 °FPassing clouds.5 mph87%30.18 "HgN/A
8:50 AM41 °FPassing clouds.2 mph100%30.18 "HgN/A
8:20 AM39 °FPassing clouds.2 mph100%30.18 "HgN/A
7:50 AM45 °FPassing clouds.2 mph93%30.18 "HgN/A
7:20 AM43 °FPassing clouds.2 mph100%30.18 "HgN/A
6:50 AM41 °FClear.2 mph93%30.18 "Hg10 mi
6:20 AM43 °FPassing clouds.2 mph100%30.18 "HgN/A
5:50 AM43 °FPassing clouds.2 mph100%30.18 "HgN/A
5:20 AM43 °FQuite cool.3 mph100%30.18 "HgN/A
4:20 AM46 °FOvercast.5 mph93%30.21 "HgN/A
3:50 AM45 °FOvercast.2 mph100%30.21 "HgN/A
3:20 AM41 °FPassing clouds.2 mph100%30.21 "HgN/A
2:50 AM43 °FPassing clouds.6 mph100%30.21 "HgN/A
2:20 AM52 °FOvercast.3 mph82%30.21 "HgN/A
1:50 AM52 °FPassing clouds.3 mph82%30.21 "HgN/A
1:20 AM48 °FPartly cloudy.3 mph94%30.21 "HgN/A
12:50 AM48 °FPassing clouds.1 mph94%30.21 "HgN/A
12:20 AM48 °FPassing clouds.2 mph94%30.21 "HgN/A
Weather by CustomWeather, © 2014

See weather overviewHow to use our weather pages